Index of /20260501/WXO-DD/model_caps/3km/12/037
Name Last modified Size Description
Parent Directory -
20260501T12Z_MSC_CAPS_AbsoluteVorticity_IsbL-0250_RLatLon0.03_PT037H.grib2 2026-05-01 18:26 1.0M
20260501T12Z_MSC_CAPS_AbsoluteVorticity_IsbL-0500_RLatLon0.03_PT037H.grib2 2026-05-01 18:26 1.1M
20260501T12Z_MSC_CAPS_AbsoluteVorticity_IsbL-0700_RLatLon0.03_PT037H.grib2 2026-05-01 18:26 1.0M
20260501T12Z_MSC_CAPS_AbsoluteVorticity_IsbL-0850_RLatLon0.03_PT037H.grib2 2026-05-01 18:26 1.2M
20260501T12Z_MSC_CAPS_AbsoluteVorticity_IsbL-1000_RLatLon0.03_PT037H.grib2 2026-05-01 18:26 1.3M
20260501T12Z_MSC_CAPS_AirDensity_AGL-120m_RLatLon0.03_PT037H.grib2 2026-05-01 18:26 1.4M
20260501T12Z_MSC_CAPS_AirDensity_AGL-40m_RLatLon0.03_PT037H.grib2 2026-05-01 18:26 1.4M
20260501T12Z_MSC_CAPS_AirDensity_AGL-80m_RLatLon0.03_PT037H.grib2 2026-05-01 18:26 1.4M
20260501T12Z_MSC_CAPS_AirTemp_AGL-120m_RLatLon0.03_PT037H.grib2 2026-05-01 18:26 1.4M
20260501T12Z_MSC_CAPS_AirTemp_AGL-2m_RLatLon0.03_PT037H.grib2 2026-05-01 18:26 1.7M
20260501T12Z_MSC_CAPS_AirTemp_AGL-40m_RLatLon0.03_PT037H.grib2 2026-05-01 18:26 1.4M
20260501T12Z_MSC_CAPS_AirTemp_AGL-80m_RLatLon0.03_PT037H.grib2 2026-05-01 18:26 1.4M
20260501T12Z_MSC_CAPS_AirTemp_IsbL-0050_RLatLon0.03_PT037H.grib2 2026-05-01 18:26 692K
20260501T12Z_MSC_CAPS_AirTemp_IsbL-0100_RLatLon0.03_PT037H.grib2 2026-05-01 18:26 1.0M
20260501T12Z_MSC_CAPS_AirTemp_IsbL-0150_RLatLon0.03_PT037H.grib2 2026-05-01 18:26 755K
20260501T12Z_MSC_CAPS_AirTemp_IsbL-0175_RLatLon0.03_PT037H.grib2 2026-05-01 18:26 771K
20260501T12Z_MSC_CAPS_AirTemp_IsbL-0200_RLatLon0.03_PT037H.grib2 2026-05-01 18:26 786K
20260501T12Z_MSC_CAPS_AirTemp_IsbL-0225_RLatLon0.03_PT037H.grib2 2026-05-01 18:26 790K
20260501T12Z_MSC_CAPS_AirTemp_IsbL-0250_RLatLon0.03_PT037H.grib2 2026-05-01 18:26 1.0M
20260501T12Z_MSC_CAPS_AirTemp_IsbL-0275_RLatLon0.03_PT037H.grib2 2026-05-01 18:26 1.0M
20260501T12Z_MSC_CAPS_AirTemp_IsbL-0300_RLatLon0.03_PT037H.grib2 2026-05-01 18:26 1.0M
20260501T12Z_MSC_CAPS_AirTemp_IsbL-0350_RLatLon0.03_PT037H.grib2 2026-05-01 18:26 750K
20260501T12Z_MSC_CAPS_AirTemp_IsbL-0400_RLatLon0.03_PT037H.grib2 2026-05-01 18:26 756K
20260501T12Z_MSC_CAPS_AirTemp_IsbL-0450_RLatLon0.03_PT037H.grib2 2026-05-01 18:26 774K
20260501T12Z_MSC_CAPS_AirTemp_IsbL-0500_RLatLon0.03_PT037H.grib2 2026-05-01 18:26 790K
20260501T12Z_MSC_CAPS_AirTemp_IsbL-0550_RLatLon0.03_PT037H.grib2 2026-05-01 18:26 959K
20260501T12Z_MSC_CAPS_AirTemp_IsbL-0600_RLatLon0.03_PT037H.grib2 2026-05-01 18:26 1.0M
20260501T12Z_MSC_CAPS_AirTemp_IsbL-0650_RLatLon0.03_PT037H.grib2 2026-05-01 18:26 1.0M
20260501T12Z_MSC_CAPS_AirTemp_IsbL-0700_RLatLon0.03_PT037H.grib2 2026-05-01 18:26 1.0M
20260501T12Z_MSC_CAPS_AirTemp_IsbL-0750_RLatLon0.03_PT037H.grib2 2026-05-01 18:26 1.0M
20260501T12Z_MSC_CAPS_AirTemp_IsbL-0800_RLatLon0.03_PT037H.grib2 2026-05-01 18:26 1.1M
20260501T12Z_MSC_CAPS_AirTemp_IsbL-0850_RLatLon0.03_PT037H.grib2 2026-05-01 18:26 1.0M
20260501T12Z_MSC_CAPS_AirTemp_IsbL-0875_RLatLon0.03_PT037H.grib2 2026-05-01 18:26 1.0M
20260501T12Z_MSC_CAPS_AirTemp_IsbL-0900_RLatLon0.03_PT037H.grib2 2026-05-01 18:26 1.0M
20260501T12Z_MSC_CAPS_AirTemp_IsbL-0925_RLatLon0.03_PT037H.grib2 2026-05-01 18:26 1.0M
20260501T12Z_MSC_CAPS_AirTemp_IsbL-0950_RLatLon0.03_PT037H.grib2 2026-05-01 18:26 1.0M
20260501T12Z_MSC_CAPS_AirTemp_IsbL-0970_RLatLon0.03_PT037H.grib2 2026-05-01 18:26 1.0M
20260501T12Z_MSC_CAPS_AirTemp_IsbL-0985_RLatLon0.03_PT037H.grib2 2026-05-01 18:26 1.0M
20260501T12Z_MSC_CAPS_AirTemp_IsbL-1000_RLatLon0.03_PT037H.grib2 2026-05-01 18:26 1.0M
20260501T12Z_MSC_CAPS_AirTemp_IsbL-1015_RLatLon0.03_PT037H.grib2 2026-05-01 18:26 1.0M
20260501T12Z_MSC_CAPS_Albedo_Sfc_RLatLon0.03_PT037H.grib2 2026-05-01 18:26 2.7M
20260501T12Z_MSC_CAPS_CAPE_Sfc_RLatLon0.03_PT037H.grib2 2026-05-01 18:26 146K
20260501T12Z_MSC_CAPS_CloudWater_EAtm_RLatLon0.03_PT037H.grib2 2026-05-01 18:26 1.5M
20260501T12Z_MSC_CAPS_ConvectivePrecip-Accum_Sfc_RLatLon0.03_PT037H.grib2 2026-05-01 18:26 4.3M
20260501T12Z_MSC_CAPS_DewPointDepression_AGL-120m_RLatLon0.03_PT037H.grib2 2026-05-01 18:26 2.0M
20260501T12Z_MSC_CAPS_DewPointDepression_AGL-2m_RLatLon0.03_PT037H.grib2 2026-05-01 18:26 2.1M
20260501T12Z_MSC_CAPS_DewPointDepression_AGL-40m_RLatLon0.03_PT037H.grib2 2026-05-01 18:26 2.0M
20260501T12Z_MSC_CAPS_DewPointDepression_AGL-80m_RLatLon0.03_PT037H.grib2 2026-05-01 18:26 2.0M
20260501T12Z_MSC_CAPS_DewPointDepression_IsbL-0050_RLatLon0.03_PT037H.grib2 2026-05-01 18:26 14K
20260501T12Z_MSC_CAPS_DewPointDepression_IsbL-0100_RLatLon0.03_PT037H.grib2 2026-05-01 18:26 105K
20260501T12Z_MSC_CAPS_DewPointDepression_IsbL-0150_RLatLon0.03_PT037H.grib2 2026-05-01 18:26 109K
20260501T12Z_MSC_CAPS_DewPointDepression_IsbL-0175_RLatLon0.03_PT037H.grib2 2026-05-01 18:26 254K
20260501T12Z_MSC_CAPS_DewPointDepression_IsbL-0200_RLatLon0.03_PT037H.grib2 2026-05-01 18:26 402K
20260501T12Z_MSC_CAPS_DewPointDepression_IsbL-0225_RLatLon0.03_PT037H.grib2 2026-05-01 18:26 648K
20260501T12Z_MSC_CAPS_DewPointDepression_IsbL-0250_RLatLon0.03_PT037H.grib2 2026-05-01 18:26 863K
20260501T12Z_MSC_CAPS_DewPointDepression_IsbL-0275_RLatLon0.03_PT037H.grib2 2026-05-01 18:26 1.0M
20260501T12Z_MSC_CAPS_DewPointDepression_IsbL-0300_RLatLon0.03_PT037H.grib2 2026-05-01 18:26 1.1M
20260501T12Z_MSC_CAPS_DewPointDepression_IsbL-0350_RLatLon0.03_PT037H.grib2 2026-05-01 18:26 1.1M
20260501T12Z_MSC_CAPS_DewPointDepression_IsbL-0400_RLatLon0.03_PT037H.grib2 2026-05-01 18:26 1.1M
20260501T12Z_MSC_CAPS_DewPointDepression_IsbL-0450_RLatLon0.03_PT037H.grib2 2026-05-01 18:26 1.1M
20260501T12Z_MSC_CAPS_DewPointDepression_IsbL-0500_RLatLon0.03_PT037H.grib2 2026-05-01 18:26 1.2M
20260501T12Z_MSC_CAPS_DewPointDepression_IsbL-0550_RLatLon0.03_PT037H.grib2 2026-05-01 18:26 1.2M
20260501T12Z_MSC_CAPS_DewPointDepression_IsbL-0600_RLatLon0.03_PT037H.grib2 2026-05-01 18:26 1.3M
20260501T12Z_MSC_CAPS_DewPointDepression_IsbL-0650_RLatLon0.03_PT037H.grib2 2026-05-01 18:26 1.3M
20260501T12Z_MSC_CAPS_DewPointDepression_IsbL-0700_RLatLon0.03_PT037H.grib2 2026-05-01 18:26 1.3M
20260501T12Z_MSC_CAPS_DewPointDepression_IsbL-0750_RLatLon0.03_PT037H.grib2 2026-05-01 18:26 1.3M
20260501T12Z_MSC_CAPS_DewPointDepression_IsbL-0800_RLatLon0.03_PT037H.grib2 2026-05-01 18:26 1.4M
20260501T12Z_MSC_CAPS_DewPointDepression_IsbL-0850_RLatLon0.03_PT037H.grib2 2026-05-01 18:26 1.4M
20260501T12Z_MSC_CAPS_DewPointDepression_IsbL-0875_RLatLon0.03_PT037H.grib2 2026-05-01 18:26 1.4M
20260501T12Z_MSC_CAPS_DewPointDepression_IsbL-0900_RLatLon0.03_PT037H.grib2 2026-05-01 18:26 1.3M
20260501T12Z_MSC_CAPS_DewPointDepression_IsbL-0925_RLatLon0.03_PT037H.grib2 2026-05-01 18:26 1.3M
20260501T12Z_MSC_CAPS_DewPointDepression_IsbL-0950_RLatLon0.03_PT037H.grib2 2026-05-01 18:26 1.3M
20260501T12Z_MSC_CAPS_DewPointDepression_IsbL-0970_RLatLon0.03_PT037H.grib2 2026-05-01 18:26 1.3M
20260501T12Z_MSC_CAPS_DewPointDepression_IsbL-0985_RLatLon0.03_PT037H.grib2 2026-05-01 18:26 1.3M
20260501T12Z_MSC_CAPS_DewPointDepression_IsbL-1000_RLatLon0.03_PT037H.grib2 2026-05-01 18:26 1.3M
20260501T12Z_MSC_CAPS_DewPointDepression_IsbL-1015_RLatLon0.03_PT037H.grib2 2026-05-01 18:26 1.3M
20260501T12Z_MSC_CAPS_DewPoint_AGL-120m_RLatLon0.03_PT037H.grib2 2026-05-01 18:26 3.6M
20260501T12Z_MSC_CAPS_DewPoint_AGL-2m_RLatLon0.03_PT037H.grib2 2026-05-01 18:26 1.7M
20260501T12Z_MSC_CAPS_DewPoint_AGL-40m_RLatLon0.03_PT037H.grib2 2026-05-01 18:26 3.6M
20260501T12Z_MSC_CAPS_DewPoint_AGL-80m_RLatLon0.03_PT037H.grib2 2026-05-01 18:26 3.6M
20260501T12Z_MSC_CAPS_DownwardLongwaveRadiationFlux-Accum_Sfc_RLatLon0.03_PT037H.grib2 2026-05-01 18:26 2.5M
20260501T12Z_MSC_CAPS_DownwardShortwaveRadiationFlux-Accum_NTAtm_RLatLon0.03_PT037H.grib2 2026-05-01 18:26 396K
20260501T12Z_MSC_CAPS_DownwardShortwaveRadiationFlux-Accum_Sfc_RLatLon0.03_PT037H.grib2 2026-05-01 18:26 2.8M
20260501T12Z_MSC_CAPS_FreezingRain-Accum_Sfc_RLatLon0.03_PT037H.grib2 2026-05-01 18:26 875K
20260501T12Z_MSC_CAPS_GeopotentialHeight_IsbL-0050_RLatLon0.03_PT037H.grib2 2026-05-01 18:26 637K
20260501T12Z_MSC_CAPS_GeopotentialHeight_IsbL-0100_RLatLon0.03_PT037H.grib2 2026-05-01 18:26 767K
20260501T12Z_MSC_CAPS_GeopotentialHeight_IsbL-0150_RLatLon0.03_PT037H.grib2 2026-05-01 18:26 725K
20260501T12Z_MSC_CAPS_GeopotentialHeight_IsbL-0175_RLatLon0.03_PT037H.grib2 2026-05-01 18:26 738K
20260501T12Z_MSC_CAPS_GeopotentialHeight_IsbL-0200_RLatLon0.03_PT037H.grib2 2026-05-01 18:26 747K
20260501T12Z_MSC_CAPS_GeopotentialHeight_IsbL-0225_RLatLon0.03_PT037H.grib2 2026-05-01 18:26 757K
20260501T12Z_MSC_CAPS_GeopotentialHeight_IsbL-0250_RLatLon0.03_PT037H.grib2 2026-05-01 18:26 772K
20260501T12Z_MSC_CAPS_GeopotentialHeight_IsbL-0275_RLatLon0.03_PT037H.grib2 2026-05-01 18:26 782K
20260501T12Z_MSC_CAPS_GeopotentialHeight_IsbL-0300_RLatLon0.03_PT037H.grib2 2026-05-01 18:26 787K
20260501T12Z_MSC_CAPS_GeopotentialHeight_IsbL-0350_RLatLon0.03_PT037H.grib2 2026-05-01 18:26 786K
20260501T12Z_MSC_CAPS_GeopotentialHeight_IsbL-0400_RLatLon0.03_PT037H.grib2 2026-05-01 18:26 780K
20260501T12Z_MSC_CAPS_GeopotentialHeight_IsbL-0450_RLatLon0.03_PT037H.grib2 2026-05-01 18:26 770K
20260501T12Z_MSC_CAPS_GeopotentialHeight_IsbL-0500_RLatLon0.03_PT037H.grib2 2026-05-01 18:26 762K
20260501T12Z_MSC_CAPS_GeopotentialHeight_IsbL-0550_RLatLon0.03_PT037H.grib2 2026-05-01 18:26 751K
20260501T12Z_MSC_CAPS_GeopotentialHeight_IsbL-0600_RLatLon0.03_PT037H.grib2 2026-05-01 18:26 635K
20260501T12Z_MSC_CAPS_GeopotentialHeight_IsbL-0650_RLatLon0.03_PT037H.grib2 2026-05-01 18:26 635K
20260501T12Z_MSC_CAPS_GeopotentialHeight_IsbL-0700_RLatLon0.03_PT037H.grib2 2026-05-01 18:26 636K
20260501T12Z_MSC_CAPS_GeopotentialHeight_IsbL-0750_RLatLon0.03_PT037H.grib2 2026-05-01 18:26 635K
20260501T12Z_MSC_CAPS_GeopotentialHeight_IsbL-0800_RLatLon0.03_PT037H.grib2 2026-05-01 18:26 821K
20260501T12Z_MSC_CAPS_GeopotentialHeight_IsbL-0850_RLatLon0.03_PT037H.grib2 2026-05-01 18:26 830K
20260501T12Z_MSC_CAPS_GeopotentialHeight_IsbL-0875_RLatLon0.03_PT037H.grib2 2026-05-01 18:26 837K
20260501T12Z_MSC_CAPS_GeopotentialHeight_IsbL-0900_RLatLon0.03_PT037H.grib2 2026-05-01 18:26 842K
20260501T12Z_MSC_CAPS_GeopotentialHeight_IsbL-0925_RLatLon0.03_PT037H.grib2 2026-05-01 18:26 834K
20260501T12Z_MSC_CAPS_GeopotentialHeight_IsbL-0950_RLatLon0.03_PT037H.grib2 2026-05-01 18:26 848K
20260501T12Z_MSC_CAPS_GeopotentialHeight_IsbL-0970_RLatLon0.03_PT037H.grib2 2026-05-01 18:26 865K
20260501T12Z_MSC_CAPS_GeopotentialHeight_IsbL-0985_RLatLon0.03_PT037H.grib2 2026-05-01 18:26 872K
20260501T12Z_MSC_CAPS_GeopotentialHeight_IsbL-1000_RLatLon0.03_PT037H.grib2 2026-05-01 18:26 879K
20260501T12Z_MSC_CAPS_GeopotentialHeight_IsbL-1015_RLatLon0.03_PT037H.grib2 2026-05-01 18:26 888K
20260501T12Z_MSC_CAPS_GeopotentialHeight_Sfc_RLatLon0.03_PT037H.grib2 2026-05-01 18:26 1.0M
20260501T12Z_MSC_CAPS_IcePellets-Accum_Sfc_RLatLon0.03_PT037H.grib2 2026-05-01 18:26 65K
20260501T12Z_MSC_CAPS_LatentHeatNetFlux_Sfc_RLatLon0.03_PT037H.grib2 2026-05-01 18:26 2.3M
20260501T12Z_MSC_CAPS_LiftedIndex-MU-VT_IsbL-0500_RLatLon0.03_PT037H.grib2 2026-05-01 18:26 3.3M
20260501T12Z_MSC_CAPS_MixedLayerThickness_Sfc_RLatLon0.03_PT037H.nc 2026-05-01 18:14 16M
20260501T12Z_MSC_CAPS_NetLongwaveRadiationFlux-Accum_Sfc_RLatLon0.03_PT037H.grib2 2026-05-01 18:26 2.8M
20260501T12Z_MSC_CAPS_NetShortwaveRadiationFlux-Accum_Sfc_RLatLon0.03_PT037H.grib2 2026-05-01 18:26 2.7M
20260501T12Z_MSC_CAPS_PlanetaryBoundaryLayerHeight_Sfc_RLatLon0.03_PT037H.grib2 2026-05-01 18:26 3.0M
20260501T12Z_MSC_CAPS_Precip-Accum_Sfc_RLatLon0.03_PT037H.grib2 2026-05-01 18:26 5.1M
20260501T12Z_MSC_CAPS_PrecipRate_Sfc_RLatLon0.03_PT037H.grib2 2026-05-01 18:26 577K
20260501T12Z_MSC_CAPS_PrecipType-Instant_Sfc_RLatLon0.03_PT037H.grib2 2026-05-01 18:26 2.0M
20260501T12Z_MSC_CAPS_Pressure_MSL_RLatLon0.03_PT037H.grib2 2026-05-01 18:26 765K
20260501T12Z_MSC_CAPS_Pressure_Sfc_RLatLon0.03_PT037H.grib2 2026-05-01 18:26 1.2M
20260501T12Z_MSC_CAPS_RadiativeTemp_Sfc_RLatLon0.03_PT037H.grib2 2026-05-01 18:26 2.1M
20260501T12Z_MSC_CAPS_Rain-Accum_Sfc_RLatLon0.03_PT037H.grib2 2026-05-01 18:26 2.4M
20260501T12Z_MSC_CAPS_RelativeHumidity_AGL-120m_RLatLon0.03_PT037H.grib2 2026-05-01 18:26 2.8M
20260501T12Z_MSC_CAPS_RelativeHumidity_AGL-2m_RLatLon0.03_PT037H.grib2 2026-05-01 18:26 2.9M
20260501T12Z_MSC_CAPS_RelativeHumidity_AGL-40m_RLatLon0.03_PT037H.grib2 2026-05-01 18:26 2.8M
20260501T12Z_MSC_CAPS_RelativeHumidity_AGL-80m_RLatLon0.03_PT037H.grib2 2026-05-01 18:26 2.8M
20260501T12Z_MSC_CAPS_RelativeHumidity_IsbL-0050_RLatLon0.03_PT037H.grib2 2026-05-01 18:26 736K
20260501T12Z_MSC_CAPS_RelativeHumidity_IsbL-0100_RLatLon0.03_PT037H.grib2 2026-05-01 18:26 882K
20260501T12Z_MSC_CAPS_RelativeHumidity_IsbL-0150_RLatLon0.03_PT037H.grib2 2026-05-01 18:26 496K
20260501T12Z_MSC_CAPS_RelativeHumidity_IsbL-0175_RLatLon0.03_PT037H.grib2 2026-05-01 18:26 492K
20260501T12Z_MSC_CAPS_RelativeHumidity_IsbL-0200_RLatLon0.03_PT037H.grib2 2026-05-01 18:26 690K
20260501T12Z_MSC_CAPS_RelativeHumidity_IsbL-0225_RLatLon0.03_PT037H.grib2 2026-05-01 18:26 898K
20260501T12Z_MSC_CAPS_RelativeHumidity_IsbL-0250_RLatLon0.03_PT037H.grib2 2026-05-01 18:26 1.1M
20260501T12Z_MSC_CAPS_RelativeHumidity_IsbL-0275_RLatLon0.03_PT037H.grib2 2026-05-01 18:26 1.4M
20260501T12Z_MSC_CAPS_RelativeHumidity_IsbL-0300_RLatLon0.03_PT037H.grib2 2026-05-01 18:26 1.7M
20260501T12Z_MSC_CAPS_RelativeHumidity_IsbL-0350_RLatLon0.03_PT037H.grib2 2026-05-01 18:26 2.0M
20260501T12Z_MSC_CAPS_RelativeHumidity_IsbL-0400_RLatLon0.03_PT037H.grib2 2026-05-01 18:26 1.9M
20260501T12Z_MSC_CAPS_RelativeHumidity_IsbL-0450_RLatLon0.03_PT037H.grib2 2026-05-01 18:26 2.0M
20260501T12Z_MSC_CAPS_RelativeHumidity_IsbL-0500_RLatLon0.03_PT037H.grib2 2026-05-01 18:26 2.0M
20260501T12Z_MSC_CAPS_RelativeHumidity_IsbL-0550_RLatLon0.03_PT037H.grib2 2026-05-01 18:26 2.2M
20260501T12Z_MSC_CAPS_RelativeHumidity_IsbL-0600_RLatLon0.03_PT037H.grib2 2026-05-01 18:26 2.2M
20260501T12Z_MSC_CAPS_RelativeHumidity_IsbL-0650_RLatLon0.03_PT037H.grib2 2026-05-01 18:26 2.3M
20260501T12Z_MSC_CAPS_RelativeHumidity_IsbL-0700_RLatLon0.03_PT037H.grib2 2026-05-01 18:26 2.4M
20260501T12Z_MSC_CAPS_RelativeHumidity_IsbL-0750_RLatLon0.03_PT037H.grib2 2026-05-01 18:26 2.4M
20260501T12Z_MSC_CAPS_RelativeHumidity_IsbL-0800_RLatLon0.03_PT037H.grib2 2026-05-01 18:26 2.4M
20260501T12Z_MSC_CAPS_RelativeHumidity_IsbL-0850_RLatLon0.03_PT037H.grib2 2026-05-01 18:26 2.6M
20260501T12Z_MSC_CAPS_RelativeHumidity_IsbL-0875_RLatLon0.03_PT037H.grib2 2026-05-01 18:26 2.6M
20260501T12Z_MSC_CAPS_RelativeHumidity_IsbL-0900_RLatLon0.03_PT037H.grib2 2026-05-01 18:26 2.6M
20260501T12Z_MSC_CAPS_RelativeHumidity_IsbL-0925_RLatLon0.03_PT037H.grib2 2026-05-01 18:26 2.6M
20260501T12Z_MSC_CAPS_RelativeHumidity_IsbL-0950_RLatLon0.03_PT037H.grib2 2026-05-01 18:26 2.7M
20260501T12Z_MSC_CAPS_RelativeHumidity_IsbL-0970_RLatLon0.03_PT037H.grib2 2026-05-01 18:26 2.7M
20260501T12Z_MSC_CAPS_RelativeHumidity_IsbL-0985_RLatLon0.03_PT037H.grib2 2026-05-01 18:26 2.8M
20260501T12Z_MSC_CAPS_RelativeHumidity_IsbL-1000_RLatLon0.03_PT037H.grib2 2026-05-01 18:26 2.8M
20260501T12Z_MSC_CAPS_RelativeHumidity_IsbL-1015_RLatLon0.03_PT037H.grib2 2026-05-01 18:26 2.8M
20260501T12Z_MSC_CAPS_Runoff-Accum_Sfc_RLatLon0.03_PT037H.grib2 2026-05-01 18:26 425K
20260501T12Z_MSC_CAPS_SeaIceAreaFraction_Sfc_RLatLon0.03_PT037H.nc 2026-05-01 18:14 15M
20260501T12Z_MSC_CAPS_SeaIceCompressiveStrength_Sfc_RLatLon0.03_PT037H.nc 2026-05-01 18:14 15M
20260501T12Z_MSC_CAPS_SeaIceDivergence_Sfc_RLatLon0.03_PT037H.nc 2026-05-01 18:14 15M
20260501T12Z_MSC_CAPS_SeaIceInternalPressure_Sfc_RLatLon0.03_PT037H.nc 2026-05-01 18:14 15M
20260501T12Z_MSC_CAPS_SeaIceShear_Sfc_RLatLon0.03_PT037H.nc 2026-05-01 18:14 14M
20260501T12Z_MSC_CAPS_SeaIceSnowTemp_Sfc_RLatLon0.03_PT037H.nc 2026-05-01 18:14 14M
20260501T12Z_MSC_CAPS_SeaIceSnowVolume_Sfc_RLatLon0.03_PT037H.nc 2026-05-01 18:14 15M
20260501T12Z_MSC_CAPS_SeaIceVelocityX_Sfc_RLatLon0.03_PT037H.nc 2026-05-01 18:14 15M
20260501T12Z_MSC_CAPS_SeaIceVelocityY_Sfc_RLatLon0.03_PT037H.nc 2026-05-01 18:14 15M
20260501T12Z_MSC_CAPS_SeaIceVolume_Sfc_RLatLon0.03_PT037H.nc 2026-05-01 18:14 15M
20260501T12Z_MSC_CAPS_SeaSurfaceHeight_Sfc_RLatLon0.03_PT037H.nc 2026-05-01 18:14 16M
20260501T12Z_MSC_CAPS_SeaWaterSalinity_DBS-0.5m_RLatLon0.03_PT037H.nc 2026-05-01 18:14 16M
20260501T12Z_MSC_CAPS_SeaWaterSalinity_DBS-all_RLatLon0.03_PT037H.nc 2026-05-01 18:14 107M
20260501T12Z_MSC_CAPS_SeaWaterTemp_DBS-0.5m_RLatLon0.03_PT037H.nc 2026-05-01 18:14 14M
20260501T12Z_MSC_CAPS_SeaWaterTemp_DBS-all_RLatLon0.03_PT037H.nc 2026-05-01 18:14 87M
20260501T12Z_MSC_CAPS_SeaWaterVelocityX_DBS-0.5m_RLatLon0.03_PT037H.nc 2026-05-01 18:14 17M
20260501T12Z_MSC_CAPS_SeaWaterVelocityX_DBS-all_RLatLon0.03_PT037H.nc 2026-05-01 18:14 206M
20260501T12Z_MSC_CAPS_SeaWaterVelocityY_DBS-0.5m_RLatLon0.03_PT037H.nc 2026-05-01 18:14 17M
20260501T12Z_MSC_CAPS_SeaWaterVelocityY_DBS-all_RLatLon0.03_PT037H.nc 2026-05-01 18:14 208M
20260501T12Z_MSC_CAPS_SensibleHeatNetFlux_Sfc_RLatLon0.03_PT037H.grib2 2026-05-01 18:26 2.1M
20260501T12Z_MSC_CAPS_ShowalterIndex_IsbL-0500_RLatLon0.03_PT037H.grib2 2026-05-01 18:26 4.3M
20260501T12Z_MSC_CAPS_Snow-Accum_Sfc_RLatLon0.03_PT037H.grib2 2026-05-01 18:26 4.1M
20260501T12Z_MSC_CAPS_SnowDensity_Sfc_RLatLon0.03_PT037H.grib2 2026-05-01 18:26 1.3M
20260501T12Z_MSC_CAPS_SnowDepthWaterEquivalent_Sfc_RLatLon0.03_PT037H.grib2 2026-05-01 18:26 679K
20260501T12Z_MSC_CAPS_SnowDepth_Sfc_RLatLon0.03_PT037H.grib2 2026-05-01 18:26 1.2M
20260501T12Z_MSC_CAPS_SoilTemp_DBS-0to10cm_RLatLon0.03_PT037H.grib2 2026-05-01 18:26 1.7M
20260501T12Z_MSC_CAPS_SoilTemp_Sfc_RLatLon0.03_PT037H.grib2 2026-05-01 18:26 1.8M
20260501T12Z_MSC_CAPS_SoilVolumetricIceContent_Sfc_RLatLon0.03_PT037H.grib2 2026-05-01 18:26 1.4M
20260501T12Z_MSC_CAPS_SoilVolumetricWaterContent_DBS-0to10cm_RLatLon0.03_PT037H.grib2 2026-05-01 18:26 1.3M
20260501T12Z_MSC_CAPS_SoilVolumetricWaterContent_DBS-0to1cm_RLatLon0.03_PT037H.grib2 2026-05-01 18:26 1.7M
20260501T12Z_MSC_CAPS_SpecificHumidity_AGL-120m_RLatLon0.03_PT037H.grib2 2026-05-01 18:26 1.4M
20260501T12Z_MSC_CAPS_SpecificHumidity_AGL-2m_RLatLon0.03_PT037H.grib2 2026-05-01 18:26 1.7M
20260501T12Z_MSC_CAPS_SpecificHumidity_AGL-40m_RLatLon0.03_PT037H.grib2 2026-05-01 18:26 1.4M
20260501T12Z_MSC_CAPS_SpecificHumidity_AGL-80m_RLatLon0.03_PT037H.grib2 2026-05-01 18:26 1.4M
20260501T12Z_MSC_CAPS_SpecificHumidity_IsbL-0050_RLatLon0.03_PT037H.grib2 2026-05-01 18:26 916K
20260501T12Z_MSC_CAPS_SpecificHumidity_IsbL-0100_RLatLon0.03_PT037H.grib2 2026-05-01 18:26 1.0M
20260501T12Z_MSC_CAPS_SpecificHumidity_IsbL-0150_RLatLon0.03_PT037H.grib2 2026-05-01 18:26 772K
20260501T12Z_MSC_CAPS_SpecificHumidity_IsbL-0175_RLatLon0.03_PT037H.grib2 2026-05-01 18:26 1.0M
20260501T12Z_MSC_CAPS_SpecificHumidity_IsbL-0200_RLatLon0.03_PT037H.grib2 2026-05-01 18:26 1.0M
20260501T12Z_MSC_CAPS_SpecificHumidity_IsbL-0225_RLatLon0.03_PT037H.grib2 2026-05-01 18:26 1.1M
20260501T12Z_MSC_CAPS_SpecificHumidity_IsbL-0250_RLatLon0.03_PT037H.grib2 2026-05-01 18:26 1.1M
20260501T12Z_MSC_CAPS_SpecificHumidity_IsbL-0275_RLatLon0.03_PT037H.grib2 2026-05-01 18:26 1.1M
20260501T12Z_MSC_CAPS_SpecificHumidity_IsbL-0300_RLatLon0.03_PT037H.grib2 2026-05-01 18:26 1.1M
20260501T12Z_MSC_CAPS_SpecificHumidity_IsbL-0350_RLatLon0.03_PT037H.grib2 2026-05-01 18:26 1.0M
20260501T12Z_MSC_CAPS_SpecificHumidity_IsbL-0400_RLatLon0.03_PT037H.grib2 2026-05-01 18:26 1.2M
20260501T12Z_MSC_CAPS_SpecificHumidity_IsbL-0450_RLatLon0.03_PT037H.grib2 2026-05-01 18:26 1.1M
20260501T12Z_MSC_CAPS_SpecificHumidity_IsbL-0500_RLatLon0.03_PT037H.grib2 2026-05-01 18:26 1.3M
20260501T12Z_MSC_CAPS_SpecificHumidity_IsbL-0550_RLatLon0.03_PT037H.grib2 2026-05-01 18:26 1.3M
20260501T12Z_MSC_CAPS_SpecificHumidity_IsbL-0600_RLatLon0.03_PT037H.grib2 2026-05-01 18:26 1.4M
20260501T12Z_MSC_CAPS_SpecificHumidity_IsbL-0650_RLatLon0.03_PT037H.grib2 2026-05-01 18:26 1.6M
20260501T12Z_MSC_CAPS_SpecificHumidity_IsbL-0700_RLatLon0.03_PT037H.grib2 2026-05-01 18:26 1.7M
20260501T12Z_MSC_CAPS_SpecificHumidity_IsbL-0750_RLatLon0.03_PT037H.grib2 2026-05-01 18:26 1.4M
20260501T12Z_MSC_CAPS_SpecificHumidity_IsbL-0800_RLatLon0.03_PT037H.grib2 2026-05-01 18:26 1.5M
20260501T12Z_MSC_CAPS_SpecificHumidity_IsbL-0850_RLatLon0.03_PT037H.grib2 2026-05-01 18:26 1.7M
20260501T12Z_MSC_CAPS_SpecificHumidity_IsbL-0875_RLatLon0.03_PT037H.grib2 2026-05-01 18:26 1.8M
20260501T12Z_MSC_CAPS_SpecificHumidity_IsbL-0900_RLatLon0.03_PT037H.grib2 2026-05-01 18:26 1.5M
20260501T12Z_MSC_CAPS_SpecificHumidity_IsbL-0925_RLatLon0.03_PT037H.grib2 2026-05-01 18:26 1.5M
20260501T12Z_MSC_CAPS_SpecificHumidity_IsbL-0950_RLatLon0.03_PT037H.grib2 2026-05-01 18:26 1.5M
20260501T12Z_MSC_CAPS_SpecificHumidity_IsbL-0970_RLatLon0.03_PT037H.grib2 2026-05-01 18:26 1.6M
20260501T12Z_MSC_CAPS_SpecificHumidity_IsbL-0985_RLatLon0.03_PT037H.grib2 2026-05-01 18:26 1.6M
20260501T12Z_MSC_CAPS_SpecificHumidity_IsbL-1000_RLatLon0.03_PT037H.grib2 2026-05-01 18:26 1.7M
20260501T12Z_MSC_CAPS_SpecificHumidity_IsbL-1015_RLatLon0.03_PT037H.grib2 2026-05-01 18:26 1.7M
20260501T12Z_MSC_CAPS_SpecificHumidity_Sfc_RLatLon0.03_PT037H.grib2 2026-05-01 18:26 2.0M
20260501T12Z_MSC_CAPS_StormRelativeHelicity_Sfc_RLatLon0.03_PT037H.grib2 2026-05-01 18:26 3.2M
20260501T12Z_MSC_CAPS_Thickness_IsbL-1000to0500_RLatLon0.03_PT037H.grib2 2026-05-01 18:26 475K
20260501T12Z_MSC_CAPS_TotalCloudCover_Sfc_RLatLon0.03_PT037H.grib2 2026-05-01 18:26 3.6M
20260501T12Z_MSC_CAPS_TurboclineDepth_Sfc_RLatLon0.03_PT037H.nc 2026-05-01 18:14 16M
20260501T12Z_MSC_CAPS_UpwardLongwaveRadiationFlux_NTAtm_RLatLon0.03_PT037H.grib2 2026-05-01 18:26 2.9M
20260501T12Z_MSC_CAPS_UpwardShortwaveRadiationFlux_NTAtm_RLatLon0.03_PT037H.grib2 2026-05-01 18:26 2.0M
20260501T12Z_MSC_CAPS_VerticalVelocity_IsbL-0250_RLatLon0.03_PT037H.grib2 2026-05-01 18:26 907K
20260501T12Z_MSC_CAPS_VerticalVelocity_IsbL-0500_RLatLon0.03_PT037H.grib2 2026-05-01 18:26 888K
20260501T12Z_MSC_CAPS_VerticalVelocity_IsbL-0700_RLatLon0.03_PT037H.grib2 2026-05-01 18:26 970K
20260501T12Z_MSC_CAPS_VerticalVelocity_IsbL-0850_RLatLon0.03_PT037H.grib2 2026-05-01 18:26 1.1M
20260501T12Z_MSC_CAPS_VerticalVelocity_IsbL-1000_RLatLon0.03_PT037H.grib2 2026-05-01 18:26 1.4M
20260501T12Z_MSC_CAPS_WindDir_AGL-10m_RLatLon0.03_PT037H.grib2 2026-05-01 18:26 2.3M
20260501T12Z_MSC_CAPS_WindDir_AGL-120m_RLatLon0.03_PT037H.grib2 2026-05-01 18:26 1.1M
20260501T12Z_MSC_CAPS_WindDir_AGL-40m_RLatLon0.03_PT037H.grib2 2026-05-01 18:26 1.2M
20260501T12Z_MSC_CAPS_WindDir_AGL-80m_RLatLon0.03_PT037H.grib2 2026-05-01 18:26 1.2M
20260501T12Z_MSC_CAPS_WindDir_IsbL-0050_RLatLon0.03_PT037H.grib2 2026-05-01 18:26 1.0M
20260501T12Z_MSC_CAPS_WindDir_IsbL-0100_RLatLon0.03_PT037H.grib2 2026-05-01 18:26 1.0M
20260501T12Z_MSC_CAPS_WindDir_IsbL-0150_RLatLon0.03_PT037H.grib2 2026-05-01 18:26 1.0M
20260501T12Z_MSC_CAPS_WindDir_IsbL-0175_RLatLon0.03_PT037H.grib2 2026-05-01 18:26 1.1M
20260501T12Z_MSC_CAPS_WindDir_IsbL-0200_RLatLon0.03_PT037H.grib2 2026-05-01 18:26 1.1M
20260501T12Z_MSC_CAPS_WindDir_IsbL-0225_RLatLon0.03_PT037H.grib2 2026-05-01 18:26 1.1M
20260501T12Z_MSC_CAPS_WindDir_IsbL-0250_RLatLon0.03_PT037H.grib2 2026-05-01 18:26 1.1M
20260501T12Z_MSC_CAPS_WindDir_IsbL-0275_RLatLon0.03_PT037H.grib2 2026-05-01 18:26 1.0M
20260501T12Z_MSC_CAPS_WindDir_IsbL-0300_RLatLon0.03_PT037H.grib2 2026-05-01 18:26 1.0M
20260501T12Z_MSC_CAPS_WindDir_IsbL-0350_RLatLon0.03_PT037H.grib2 2026-05-01 18:26 1.1M
20260501T12Z_MSC_CAPS_WindDir_IsbL-0400_RLatLon0.03_PT037H.grib2 2026-05-01 18:26 1.1M
20260501T12Z_MSC_CAPS_WindDir_IsbL-0450_RLatLon0.03_PT037H.grib2 2026-05-01 18:26 1.2M
20260501T12Z_MSC_CAPS_WindDir_IsbL-0500_RLatLon0.03_PT037H.grib2 2026-05-01 18:26 1.2M
20260501T12Z_MSC_CAPS_WindDir_IsbL-0550_RLatLon0.03_PT037H.grib2 2026-05-01 18:26 1.2M
20260501T12Z_MSC_CAPS_WindDir_IsbL-0600_RLatLon0.03_PT037H.grib2 2026-05-01 18:26 1.2M
20260501T12Z_MSC_CAPS_WindDir_IsbL-0650_RLatLon0.03_PT037H.grib2 2026-05-01 18:26 1.3M
20260501T12Z_MSC_CAPS_WindDir_IsbL-0700_RLatLon0.03_PT037H.grib2 2026-05-01 18:26 1.4M
20260501T12Z_MSC_CAPS_WindDir_IsbL-0750_RLatLon0.03_PT037H.grib2 2026-05-01 18:26 1.5M
20260501T12Z_MSC_CAPS_WindDir_IsbL-0800_RLatLon0.03_PT037H.grib2 2026-05-01 18:26 1.6M
20260501T12Z_MSC_CAPS_WindDir_IsbL-0850_RLatLon0.03_PT037H.grib2 2026-05-01 18:26 1.7M
20260501T12Z_MSC_CAPS_WindDir_IsbL-0875_RLatLon0.03_PT037H.grib2 2026-05-01 18:26 1.8M
20260501T12Z_MSC_CAPS_WindDir_IsbL-0900_RLatLon0.03_PT037H.grib2 2026-05-01 18:26 1.8M
20260501T12Z_MSC_CAPS_WindDir_IsbL-0925_RLatLon0.03_PT037H.grib2 2026-05-01 18:26 1.9M
20260501T12Z_MSC_CAPS_WindDir_IsbL-0950_RLatLon0.03_PT037H.grib2 2026-05-01 18:26 1.9M
20260501T12Z_MSC_CAPS_WindDir_IsbL-0970_RLatLon0.03_PT037H.grib2 2026-05-01 18:26 2.0M
20260501T12Z_MSC_CAPS_WindDir_IsbL-0985_RLatLon0.03_PT037H.grib2 2026-05-01 18:26 2.1M
20260501T12Z_MSC_CAPS_WindDir_IsbL-1000_RLatLon0.03_PT037H.grib2 2026-05-01 18:26 2.2M
20260501T12Z_MSC_CAPS_WindDir_IsbL-1015_RLatLon0.03_PT037H.grib2 2026-05-01 18:26 2.2M
20260501T12Z_MSC_CAPS_WindGust-Max_AGL-10m_RLatLon0.03_PT037H.grib2 2026-05-01 18:26 2.6M
20260501T12Z_MSC_CAPS_WindGust-Min_AGL-10m_RLatLon0.03_PT037H.grib2 2026-05-01 18:26 2.4M
20260501T12Z_MSC_CAPS_WindGust_AGL-10m_RLatLon0.03_PT037H.grib2 2026-05-01 18:26 2.5M
20260501T12Z_MSC_CAPS_WindSpeed_AGL-10m_RLatLon0.03_PT037H.grib2 2026-05-01 18:26 2.1M
20260501T12Z_MSC_CAPS_WindSpeed_AGL-120m_RLatLon0.03_PT037H.grib2 2026-05-01 18:26 1.1M
20260501T12Z_MSC_CAPS_WindSpeed_AGL-40m_RLatLon0.03_PT037H.grib2 2026-05-01 18:26 1.2M
20260501T12Z_MSC_CAPS_WindSpeed_AGL-80m_RLatLon0.03_PT037H.grib2 2026-05-01 18:26 1.1M
20260501T12Z_MSC_CAPS_WindSpeed_IsbL-0050_RLatLon0.03_PT037H.grib2 2026-05-01 18:26 1.0M
20260501T12Z_MSC_CAPS_WindSpeed_IsbL-0100_RLatLon0.03_PT037H.grib2 2026-05-01 18:26 1.0M
20260501T12Z_MSC_CAPS_WindSpeed_IsbL-0150_RLatLon0.03_PT037H.grib2 2026-05-01 18:26 1.1M
20260501T12Z_MSC_CAPS_WindSpeed_IsbL-0175_RLatLon0.03_PT037H.grib2 2026-05-01 18:26 1.2M
20260501T12Z_MSC_CAPS_WindSpeed_IsbL-0200_RLatLon0.03_PT037H.grib2 2026-05-01 18:26 941K
20260501T12Z_MSC_CAPS_WindSpeed_IsbL-0225_RLatLon0.03_PT037H.grib2 2026-05-01 18:26 1.0M
20260501T12Z_MSC_CAPS_WindSpeed_IsbL-0250_RLatLon0.03_PT037H.grib2 2026-05-01 18:26 1.0M
20260501T12Z_MSC_CAPS_WindSpeed_IsbL-0275_RLatLon0.03_PT037H.grib2 2026-05-01 18:26 1.0M
20260501T12Z_MSC_CAPS_WindSpeed_IsbL-0300_RLatLon0.03_PT037H.grib2 2026-05-01 18:26 1.0M
20260501T12Z_MSC_CAPS_WindSpeed_IsbL-0350_RLatLon0.03_PT037H.grib2 2026-05-01 18:26 1.0M
20260501T12Z_MSC_CAPS_WindSpeed_IsbL-0400_RLatLon0.03_PT037H.grib2 2026-05-01 18:26 1.0M
20260501T12Z_MSC_CAPS_WindSpeed_IsbL-0450_RLatLon0.03_PT037H.grib2 2026-05-01 18:26 1.0M
20260501T12Z_MSC_CAPS_WindSpeed_IsbL-0500_RLatLon0.03_PT037H.grib2 2026-05-01 18:26 1.4M
20260501T12Z_MSC_CAPS_WindSpeed_IsbL-0550_RLatLon0.03_PT037H.grib2 2026-05-01 18:26 1.4M
20260501T12Z_MSC_CAPS_WindSpeed_IsbL-0600_RLatLon0.03_PT037H.grib2 2026-05-01 18:26 1.4M
20260501T12Z_MSC_CAPS_WindSpeed_IsbL-0650_RLatLon0.03_PT037H.grib2 2026-05-01 18:26 1.4M
20260501T12Z_MSC_CAPS_WindSpeed_IsbL-0700_RLatLon0.03_PT037H.grib2 2026-05-01 18:26 1.5M
20260501T12Z_MSC_CAPS_WindSpeed_IsbL-0750_RLatLon0.03_PT037H.grib2 2026-05-01 18:26 1.5M
20260501T12Z_MSC_CAPS_WindSpeed_IsbL-0800_RLatLon0.03_PT037H.grib2 2026-05-01 18:26 1.7M
20260501T12Z_MSC_CAPS_WindSpeed_IsbL-0850_RLatLon0.03_PT037H.grib2 2026-05-01 18:26 1.7M
20260501T12Z_MSC_CAPS_WindSpeed_IsbL-0875_RLatLon0.03_PT037H.grib2 2026-05-01 18:26 1.8M
20260501T12Z_MSC_CAPS_WindSpeed_IsbL-0900_RLatLon0.03_PT037H.grib2 2026-05-01 18:26 1.8M
20260501T12Z_MSC_CAPS_WindSpeed_IsbL-0925_RLatLon0.03_PT037H.grib2 2026-05-01 18:26 1.9M
20260501T12Z_MSC_CAPS_WindSpeed_IsbL-0950_RLatLon0.03_PT037H.grib2 2026-05-01 18:26 1.9M
20260501T12Z_MSC_CAPS_WindSpeed_IsbL-0970_RLatLon0.03_PT037H.grib2 2026-05-01 18:26 2.0M
20260501T12Z_MSC_CAPS_WindSpeed_IsbL-0985_RLatLon0.03_PT037H.grib2 2026-05-01 18:26 2.0M
20260501T12Z_MSC_CAPS_WindSpeed_IsbL-1000_RLatLon0.03_PT037H.grib2 2026-05-01 18:26 2.0M
20260501T12Z_MSC_CAPS_WindSpeed_IsbL-1015_RLatLon0.03_PT037H.grib2 2026-05-01 18:26 2.1M
20260501T12Z_MSC_CAPS_WindU_AGL-10m_RLatLon0.03_PT037H.grib2 2026-05-01 18:26 2.0M
20260501T12Z_MSC_CAPS_WindU_AGL-120m_RLatLon0.03_PT037H.grib2 2026-05-01 18:26 1.2M
20260501T12Z_MSC_CAPS_WindU_AGL-40m_RLatLon0.03_PT037H.grib2 2026-05-01 18:26 1.2M
20260501T12Z_MSC_CAPS_WindU_AGL-80m_RLatLon0.03_PT037H.grib2 2026-05-01 18:26 1.2M
20260501T12Z_MSC_CAPS_WindU_IsbL-0050_RLatLon0.03_PT037H.grib2 2026-05-01 18:26 949K
20260501T12Z_MSC_CAPS_WindU_IsbL-0100_RLatLon0.03_PT037H.grib2 2026-05-01 18:26 826K
20260501T12Z_MSC_CAPS_WindU_IsbL-0150_RLatLon0.03_PT037H.grib2 2026-05-01 18:26 720K
20260501T12Z_MSC_CAPS_WindU_IsbL-0175_RLatLon0.03_PT037H.grib2 2026-05-01 18:26 857K
20260501T12Z_MSC_CAPS_WindU_IsbL-0200_RLatLon0.03_PT037H.grib2 2026-05-01 18:26 871K
20260501T12Z_MSC_CAPS_WindU_IsbL-0225_RLatLon0.03_PT037H.grib2 2026-05-01 18:26 891K
20260501T12Z_MSC_CAPS_WindU_IsbL-0250_RLatLon0.03_PT037H.grib2 2026-05-01 18:26 698K
20260501T12Z_MSC_CAPS_WindU_IsbL-0275_RLatLon0.03_PT037H.grib2 2026-05-01 18:26 706K
20260501T12Z_MSC_CAPS_WindU_IsbL-0300_RLatLon0.03_PT037H.grib2 2026-05-01 18:26 712K
20260501T12Z_MSC_CAPS_WindU_IsbL-0350_RLatLon0.03_PT037H.grib2 2026-05-01 18:26 725K
20260501T12Z_MSC_CAPS_WindU_IsbL-0400_RLatLon0.03_PT037H.grib2 2026-05-01 18:26 950K
20260501T12Z_MSC_CAPS_WindU_IsbL-0450_RLatLon0.03_PT037H.grib2 2026-05-01 18:26 971K
20260501T12Z_MSC_CAPS_WindU_IsbL-0500_RLatLon0.03_PT037H.grib2 2026-05-01 18:26 1.0M
20260501T12Z_MSC_CAPS_WindU_IsbL-0550_RLatLon0.03_PT037H.grib2 2026-05-01 18:26 926K
20260501T12Z_MSC_CAPS_WindU_IsbL-0600_RLatLon0.03_PT037H.grib2 2026-05-01 18:26 955K
20260501T12Z_MSC_CAPS_WindU_IsbL-0650_RLatLon0.03_PT037H.grib2 2026-05-01 18:26 1.0M
20260501T12Z_MSC_CAPS_WindU_IsbL-0700_RLatLon0.03_PT037H.grib2 2026-05-01 18:26 1.0M
20260501T12Z_MSC_CAPS_WindU_IsbL-0750_RLatLon0.03_PT037H.grib2 2026-05-01 18:26 1.4M
20260501T12Z_MSC_CAPS_WindU_IsbL-0800_RLatLon0.03_PT037H.grib2 2026-05-01 18:26 1.4M
20260501T12Z_MSC_CAPS_WindU_IsbL-0850_RLatLon0.03_PT037H.grib2 2026-05-01 18:26 1.2M
20260501T12Z_MSC_CAPS_WindU_IsbL-0875_RLatLon0.03_PT037H.grib2 2026-05-01 18:26 1.2M
20260501T12Z_MSC_CAPS_WindU_IsbL-0900_RLatLon0.03_PT037H.grib2 2026-05-01 18:26 1.3M
20260501T12Z_MSC_CAPS_WindU_IsbL-0925_RLatLon0.03_PT037H.grib2 2026-05-01 18:26 1.3M
20260501T12Z_MSC_CAPS_WindU_IsbL-0950_RLatLon0.03_PT037H.grib2 2026-05-01 18:26 1.4M
20260501T12Z_MSC_CAPS_WindU_IsbL-0970_RLatLon0.03_PT037H.grib2 2026-05-01 18:26 1.4M
20260501T12Z_MSC_CAPS_WindU_IsbL-0985_RLatLon0.03_PT037H.grib2 2026-05-01 18:26 1.8M
20260501T12Z_MSC_CAPS_WindU_IsbL-1000_RLatLon0.03_PT037H.grib2 2026-05-01 18:26 1.8M
20260501T12Z_MSC_CAPS_WindU_IsbL-1015_RLatLon0.03_PT037H.grib2 2026-05-01 18:26 2.0M
20260501T12Z_MSC_CAPS_WindV_AGL-10m_RLatLon0.03_PT037H.grib2 2026-05-01 18:26 1.8M
20260501T12Z_MSC_CAPS_WindV_AGL-120m_RLatLon0.03_PT037H.grib2 2026-05-01 18:26 881K
20260501T12Z_MSC_CAPS_WindV_AGL-40m_RLatLon0.03_PT037H.grib2 2026-05-01 18:26 1.2M
20260501T12Z_MSC_CAPS_WindV_AGL-80m_RLatLon0.03_PT037H.grib2 2026-05-01 18:26 885K
20260501T12Z_MSC_CAPS_WindV_IsbL-0050_RLatLon0.03_PT037H.grib2 2026-05-01 18:26 945K
20260501T12Z_MSC_CAPS_WindV_IsbL-0100_RLatLon0.03_PT037H.grib2 2026-05-01 18:26 1.0M
20260501T12Z_MSC_CAPS_WindV_IsbL-0150_RLatLon0.03_PT037H.grib2 2026-05-01 18:26 724K
20260501T12Z_MSC_CAPS_WindV_IsbL-0175_RLatLon0.03_PT037H.grib2 2026-05-01 18:26 857K
20260501T12Z_MSC_CAPS_WindV_IsbL-0200_RLatLon0.03_PT037H.grib2 2026-05-01 18:26 873K
20260501T12Z_MSC_CAPS_WindV_IsbL-0225_RLatLon0.03_PT037H.grib2 2026-05-01 18:26 890K
20260501T12Z_MSC_CAPS_WindV_IsbL-0250_RLatLon0.03_PT037H.grib2 2026-05-01 18:26 912K
20260501T12Z_MSC_CAPS_WindV_IsbL-0275_RLatLon0.03_PT037H.grib2 2026-05-01 18:26 920K
20260501T12Z_MSC_CAPS_WindV_IsbL-0300_RLatLon0.03_PT037H.grib2 2026-05-01 18:26 929K
20260501T12Z_MSC_CAPS_WindV_IsbL-0350_RLatLon0.03_PT037H.grib2 2026-05-01 18:26 942K
20260501T12Z_MSC_CAPS_WindV_IsbL-0400_RLatLon0.03_PT037H.grib2 2026-05-01 18:26 952K
20260501T12Z_MSC_CAPS_WindV_IsbL-0450_RLatLon0.03_PT037H.grib2 2026-05-01 18:26 1.0M
20260501T12Z_MSC_CAPS_WindV_IsbL-0500_RLatLon0.03_PT037H.grib2 2026-05-01 18:26 1.0M
20260501T12Z_MSC_CAPS_WindV_IsbL-0550_RLatLon0.03_PT037H.grib2 2026-05-01 18:26 928K
20260501T12Z_MSC_CAPS_WindV_IsbL-0600_RLatLon0.03_PT037H.grib2 2026-05-01 18:26 1.2M
20260501T12Z_MSC_CAPS_WindV_IsbL-0650_RLatLon0.03_PT037H.grib2 2026-05-01 18:26 1.2M
20260501T12Z_MSC_CAPS_WindV_IsbL-0700_RLatLon0.03_PT037H.grib2 2026-05-01 18:26 1.3M
20260501T12Z_MSC_CAPS_WindV_IsbL-0750_RLatLon0.03_PT037H.grib2 2026-05-01 18:26 1.1M
20260501T12Z_MSC_CAPS_WindV_IsbL-0800_RLatLon0.03_PT037H.grib2 2026-05-01 18:26 1.1M
20260501T12Z_MSC_CAPS_WindV_IsbL-0850_RLatLon0.03_PT037H.grib2 2026-05-01 18:26 1.2M
20260501T12Z_MSC_CAPS_WindV_IsbL-0875_RLatLon0.03_PT037H.grib2 2026-05-01 18:26 1.2M
20260501T12Z_MSC_CAPS_WindV_IsbL-0900_RLatLon0.03_PT037H.grib2 2026-05-01 18:26 1.3M
20260501T12Z_MSC_CAPS_WindV_IsbL-0925_RLatLon0.03_PT037H.grib2 2026-05-01 18:26 1.3M
20260501T12Z_MSC_CAPS_WindV_IsbL-0950_RLatLon0.03_PT037H.grib2 2026-05-01 18:26 1.3M
20260501T12Z_MSC_CAPS_WindV_IsbL-0970_RLatLon0.03_PT037H.grib2 2026-05-01 18:26 1.4M
20260501T12Z_MSC_CAPS_WindV_IsbL-0985_RLatLon0.03_PT037H.grib2 2026-05-01 18:26 1.4M
20260501T12Z_MSC_CAPS_WindV_IsbL-1000_RLatLon0.03_PT037H.grib2 2026-05-01 18:26 1.8M
20260501T12Z_MSC_CAPS_WindV_IsbL-1015_RLatLon0.03_PT037H.grib2 2026-05-01 18:26 1.8M